Location: Newark
(41.6500°N, 71.4833°W)
Time: 01:10:15
(UTC+00:00)

A-11 Canister half - Pass Details

Date: 27 January 2020
Orbit: 1517 x 1683 km, 47.2° (Epoch: 19 February)

Event Time Altitude Azimuth Distance (km) Brightness Sun altitude
Rises 05:56:07 0° 266° (W) 4,722 - -63.9°
Reaches altitude 10° 05:59:15 10° 270° (W) 3,721 - -63.6°
Maximum altitude 06:08:33 65° 352° (N) 1,654 - -62.5°
Drops below altitude 10° 06:17:45 10° 73° (ENE) 3,681 - -61.4°
Exits shadow 06:17:52 10° 74° (ENE) 3,719 11.2 -61.4°
Sets 06:20:51 0° 77° (ENE) 4,669 11.9 -61.0°
